Location: Nantong Television Tower
(32.0188°N, 120.8512°E)
Time: 05:46:51
(UTC+08:00)

Vanguard 3 - Visible Passes

Search period start: 03 September 2015 00:00
Search period end: 13 September 2015 00:00
Orbit: 508 x 3269 km, 33.3° (Epoch: 02 September)

Date Brightness Start Highest point End Pass type
(mag) Time Alt. Az. Time Alt. Az. Time Alt. Az.
03 Sep 10.3 00:22:54 20° E 00:22:54 20° E 00:26:25 10° ENE visible
03 Sep 8.6 02:27:33 72° WNW 02:28:59 84° N 02:44:42 10° E visible
03 Sep 9.6 04:32:21 10° WNW 04:44:20 82° SSW 05:03:33 10° ESE visible
04 Sep 9.3 01:18:37 45° E 01:18:37 45° E 01:27:36 10° E visible
04 Sep 9.1 03:23:16 34° W 03:29:06 89° NNE 03:46:29 10° ESE visible
05 Sep 10.5 00:09:44 14° ENE 00:09:44 14° ENE 00:11:11 10° ENE visible
05 Sep 8.5 02:14:23 83° N 02:14:26 83° N 02:29:11 10° E visible
05 Sep 9.4 04:19:02 14° WNW 04:29:19 76° SSW 04:47:47 10° ESE visible
06 Sep 9.7 01:05:34 34° E 01:05:34 34° E 01:12:15 10° E visible
06 Sep 8.9 03:10:13 45° W 03:14:22 88° SSW 03:30:50 10° ESE visible
07 Sep 8.7 02:01:27 70° E 02:01:27 70° E 02:13:42 10° E visible
07 Sep 9.3 04:06:07 20° W 04:14:23 70° SSW 04:31:55 10° ESE visible
08 Sep 10.1 00:52:45 24° E 00:52:45 24° E 00:56:59 10° E visible
08 Sep 8.5 02:57:25 61° W 02:59:42 83° SSW 03:15:10 10° ESE visible
08 Sep 9.8 05:03:18 10° W 05:14:33 50° SSW 05:31:49 10° SE visible
09 Sep 9.1 01:48:46 50° E 01:48:46 50° E 01:58:17 10° E visible
09 Sep 9.1 03:53:26 29° W 03:59:34 63° SSW 04:15:57 10° SE visible
10 Sep 10.5 00:40:11 15° E 00:40:11 15° E 00:41:48 10° E visible
10 Sep 8.4 02:44:52 76° SSW 02:45:07 77° SSW 02:59:29 10° ESE visible
10 Sep 9.8 04:49:32 11° W 04:59:38 42° SSW 05:15:27 10° SE visible
11 Sep 9.6 01:36:20 34° ESE 01:36:20 34° ESE 01:42:54 10° ESE visible
11 Sep 8.9 03:41:01 39° WSW 03:44:50 55° SSW 03:59:54 10° SE visible
12 Sep 8.8 02:32:33 58° SSE 02:32:33 58° SSE 02:43:47 10° ESE visible
12 Sep 9.7 04:37:14 16° W 04:44:51 35° SSW 04:58:54 10° SSE visible
